Cairo, IL

5:51 PM CDT on May 24, 2017 (GMT -0500)
Cairo Regional

Weather History for KCIR - April, 2013

Change the Weather History Date:

Wednesday, April 17, 2013

  Actual Average Record
Temperature  
Mean Temperature 73 °F -  
Max Temperature 88 °F 71 °F 88 °F (1977)
Min Temperature 59 °F 51 °F 35 °F (1951)
Cooling Degree Days 8    
Growing Degree Days 23 (Base 50)    
Moisture  
Dew Point 63 °F    
Average Humidity 69    
Maximum Humidity 87    
Minimum Humidity 47    
Precipitation  
Precipitation 0.00 in - - ()
Sea Level Pressure  
Sea Level Pressure 29.98 in    
Wind  
Wind Speed 6 mph (SSE)    
Max Wind Speed 17 mph    
Max Gust Speed 30 mph    
Visibility 9 miles    
Events      
Averages and records for this station are not official NWS values.
T = Trace of Precipitation, MM = Missing Value Source: NWS Daily Summary

Daily Weather History Graph

Daily Weather History Graph

Search for Another Location

Airport or City:

Trip Planner

Search our weather history database for the weather conditions in past years. The results will help you decide how hot, cold, wet, or windy it might be!

Date:

Astronomy

Apr. 17, 2013 Rise Set
Actual Time 6:19 AM CDT 7:33 PM CDT
Civil Twilight 5:52 AM CDT 8:00 PM CDT
Nautical Twilight 5:20 AM CDT 8:33 PM CDT
Astronomical Twilight 4:46 AM CDT 9:06 PM CDT
Moon 11:36 AM CDT (4/17) 1:08 AM CDT (4/17)
Length of Visible Light 14h 08m
Length of Day
13h 14m
Waxing Crescent, 42% of the Moon is Illuminated
Apr 17
Waxing Crescent
Apr 18
First Quarter
Apr 25
Full
May 2
Last Quarter
May 9
New

Hourly Weather History & Observations

Time (CDT) Temp. Heat Index Dew Point Humidity Pressure Visibility Wind Dir Wind Speed Gust Speed Precip Events Conditions
12:15 AM 62.2 °F - 56.3 °F 81% 30.08 in 10.0 mi North 4.6 mph - N/A   Scattered Clouds
12:35 AM 62.2 °F - 56.3 °F 81% 30.07 in 10.0 mi North 4.6 mph - N/A   Mostly Cloudy
12:55 AM 62.6 °F - 56.5 °F 80% 30.07 in 10.0 mi NNE 5.8 mph - N/A   Mostly Cloudy
1:15 AM 62.2 °F - 56.3 °F 81% 30.07 in 10.0 mi NNE 4.6 mph - N/A   Mostly Cloudy
1:35 AM 61.9 °F - 56.3 °F 82% 30.07 in 7.0 mi NNE 4.6 mph - N/A   Mostly Cloudy
1:55 AM 61.9 °F - 56.3 °F 82% 30.06 in 7.0 mi NE 5.8 mph - N/A   Mostly Cloudy
2:15 AM 61.7 °F - 56.3 °F 82% 30.06 in 7.0 mi NNE 5.8 mph - N/A   Mostly Cloudy
2:35 AM 61.2 °F - 55.9 °F 83% 30.06 in 7.0 mi NNE 3.5 mph - N/A   Scattered Clouds
2:55 AM 61.0 °F - 56.3 °F 85% 30.05 in 7.0 mi Calm Calm - N/A   Scattered Clouds
3:15 AM 61.2 °F - 56.5 °F 85% 30.06 in 7.0 mi North 3.5 mph - N/A   Mostly Cloudy
3:35 AM 61.0 °F - 56.3 °F 85% 30.06 in 7.0 mi Calm Calm - N/A   Scattered Clouds
3:55 AM 60.3 °F - 55.8 °F 85% 30.05 in 7.0 mi Calm Calm - N/A   Scattered Clouds
4:15 AM 60.1 °F - 55.8 °F 86% 30.05 in 7.0 mi Calm Calm - N/A   Clear
4:35 AM 59.4 °F - 55.4 °F 87% 30.06 in 5.0 mi North 3.5 mph - N/A   Clear
4:55 AM 60.3 °F - 56.3 °F 87% 30.06 in 7.0 mi Calm Calm - N/A   Mostly Cloudy
5:15 AM 60.4 °F - 56.5 °F 87% 30.06 in 5.0 mi Calm Calm - N/A   Mostly Cloudy
5:35 AM 60.4 °F - 56.5 °F 87% 30.07 in 5.0 mi NE 4.6 mph - N/A   Overcast
5:55 AM 60.6 °F - 56.7 °F 87% 30.07 in 5.0 mi NE 5.8 mph - N/A   Overcast
6:15 AM 60.8 °F - 56.8 °F 87% 30.08 in 5.0 mi NE 4.6 mph - N/A   Overcast
6:35 AM 61.0 °F - 57.2 °F 87% 30.08 in 5.0 mi ENE 3.5 mph - N/A   Overcast
6:55 AM 61.5 °F - 57.4 °F 86% 30.08 in 5.0 mi ENE 4.6 mph - N/A   Overcast
7:15 AM 62.2 °F - 58.1 °F 86% 30.08 in 5.0 mi ENE 4.6 mph - N/A   Mostly Cloudy
7:35 AM 63.0 °F - 58.8 °F 86% 30.07 in 5.0 mi ENE 3.5 mph - N/A   Scattered Clouds
7:55 AM 64.4 °F - 59.7 °F 85% 30.07 in 5.0 mi ENE 3.5 mph - N/A   Scattered Clouds
8:15 AM 66.0 °F - 60.8 °F 83% 30.06 in 7.0 mi Calm Calm - N/A   Mostly Cloudy
8:35 AM 68.5 °F - 61.9 °F 79% 30.07 in 7.0 mi Calm Calm - N/A   Mostly Cloudy
9:15 AM 73.2 °F - 64.6 °F 74% 30.05 in 10.0 mi ESE 4.6 mph - N/A   Clear
9:35 AM 77.9 °F - 68.0 °F 71% 30.05 in 10.0 mi South 9.2 mph - N/A   Mostly Cloudy
9:55 AM 78.8 °F - 68.7 °F 71% 30.05 in 10.0 mi SSW 9.2 mph - N/A   Overcast
10:15 AM 78.3 °F - 68.2 °F 71% 30.06 in 10.0 mi SSW 9.2 mph - N/A   Overcast
10:35 AM 79.0 °F - 68.9 °F 71% 30.05 in 10.0 mi SSW 8.1 mph - N/A   Overcast
10:55 AM 79.9 °F - 68.7 °F 69% 30.06 in 10.0 mi SSW 6.9 mph - N/A   Overcast
11:15 AM 80.1 °F 82.9 °F 69.1 °F 69% 30.05 in 10.0 mi South 4.6 mph - N/A   Overcast
11:35 AM 80.6 °F 83.8 °F 69.6 °F 69% 30.05 in 10.0 mi SW 4.6 mph - N/A   Mostly Cloudy
11:55 AM 82.6 °F 86.1 °F 69.4 °F 64% 30.03 in 10.0 mi SSW 9.2 mph - N/A   Mostly Cloudy
12:15 PM 83.8 °F 87.3 °F 68.7 °F 60% 30.02 in 10.0 mi SSW 10.4 mph - N/A   Mostly Cloudy
12:35 PM 84.6 °F 88.5 °F 69.3 °F 60% 30.01 in 10.0 mi SSW 13.8 mph - N/A   Mostly Cloudy
12:55 PM 83.5 °F 86.4 °F 67.8 °F 59% 30.01 in 10.0 mi South 11.5 mph 16.1 mph N/A   Scattered Clouds
1:15 PM 82.8 °F 85.5 °F 67.5 °F 60% 30.00 in 10.0 mi South 10.4 mph 17.3 mph N/A   Scattered Clouds
1:35 PM 84.0 °F 86.3 °F 66.2 °F 55% 29.99 in 10.0 mi South 11.5 mph 19.6 mph N/A   Scattered Clouds
1:55 PM 87.1 °F 88.9 °F 65.1 °F 48% 29.98 in 10.0 mi SSW 16.1 mph 20.7 mph N/A   Scattered Clouds
2:15 PM 86.4 °F 88.1 °F 65.1 °F 49% 29.97 in 10.0 mi SSW 12.7 mph 19.6 mph N/A   Mostly Cloudy
2:35 PM 86.9 °F 88.3 °F 64.6 °F 47% 29.97 in 10.0 mi SSW 16.1 mph 26.5 mph N/A   Scattered Clouds
2:55 PM 87.4 °F 89.1 °F 64.8 °F 47% 29.96 in 10.0 mi South 12.7 mph 24.2 mph N/A   Scattered Clouds
3:35 PM 87.1 °F 88.6 °F 64.4 °F 47% 29.94 in 10.0 mi SSW 11.5 mph 28.8 mph N/A   Scattered Clouds
3:55 PM 86.7 °F 89.0 °F 66.2 °F 50% 29.93 in 10.0 mi South 13.8 mph 20.7 mph N/A   Mostly Cloudy
4:15 PM 86.2 °F 88.2 °F 65.7 °F 50% 29.92 in 10.0 mi South 16.1 mph 20.7 mph N/A   Scattered Clouds
4:35 PM 85.1 °F 86.4 °F 64.2 °F 49% 29.91 in 10.0 mi South 11.5 mph 20.7 mph N/A   Scattered Clouds
4:55 PM 84.2 °F 85.6 °F 64.0 °F 51% 29.91 in 10.0 mi South 11.5 mph 19.6 mph N/A   Scattered Clouds
5:15 PM 85.1 °F 86.9 °F 65.3 °F 51% 29.90 in 10.0 mi South 9.2 mph - N/A   Clear
5:35 PM 86.0 °F 87.9 °F 65.3 °F 50% 29.89 in 10.0 mi SSE 16.1 mph - N/A   Scattered Clouds
5:55 PM 85.3 °F 87.6 °F 66.6 °F 53% 29.87 in 10.0 mi SSE 17.3 mph 23.0 mph N/A   Clear
6:15 PM 84.2 °F 86.8 °F 66.7 °F 56% 29.87 in 10.0 mi SSE 9.2 mph - N/A   Clear
6:35 PM 84.2 °F 86.6 °F 66.4 °F 55% 29.86 in 10.0 mi SSE 11.5 mph - N/A   Scattered Clouds
6:55 PM 82.9 °F 85.0 °F 65.8 °F 56% 29.86 in 10.0 mi South 9.2 mph - N/A   Clear
7:15 PM 81.9 °F 83.9 °F 65.7 °F 58% 29.85 in 10.0 mi South 8.1 mph - N/A   Clear
7:35 PM 80.6 °F 82.5 °F 65.7 °F 60% 29.86 in 10.0 mi South 8.1 mph - N/A   Scattered Clouds
7:55 PM 79.7 °F - 65.7 °F 62% 29.85 in 10.0 mi SE 6.9 mph - N/A   Clear
8:15 PM 77.5 °F - 66.2 °F 68% 29.84 in 10.0 mi SSE 6.9 mph - N/A   Clear
8:35 PM 77.9 °F - 65.3 °F 65% 29.84 in 10.0 mi SSE 5.8 mph - N/A   Clear
8:55 PM 79.0 °F - 65.3 °F 63% 29.84 in 10.0 mi SSE 8.1 mph - N/A   Clear
9:15 PM 78.1 °F - 65.1 °F 64% 29.84 in 10.0 mi SSE 9.2 mph - N/A   Clear
9:55 PM 78.3 °F - 64.8 °F 63% 29.83 in 10.0 mi SSE 10.4 mph - N/A   Clear
10:15 PM 77.9 °F - 64.8 °F 64% 29.83 in 10.0 mi South 10.4 mph - N/A   Clear
10:35 PM 78.3 °F - 64.8 °F 63% 29.83 in 10.0 mi South 12.7 mph 20.7 mph N/A   Clear
10:55 PM 78.8 °F - 64.4 °F 61% 29.82 in 10.0 mi South 17.3 mph 29.9 mph N/A   Clear
11:15 PM 78.4 °F - 64.4 °F 62% 29.82 in 10.0 mi South 16.1 mph 25.3 mph N/A   Clear
11:35 PM 77.9 °F - 64.4 °F 63% 29.83 in 10.0 mi SSE 13.8 mph 25.3 mph N/A   Clear
11:55 PM 77.9 °F - 64.6 °F 63% 29.83 in 10.0 mi South 16.1 mph 24.2 mph N/A   Clear